Regional Weather Roundup
Issued by NWS Bismarck, ND

Home | Current Version | Previous Version | Text Only | Print | Product List | Glossary On
Versions: 1 2 3 4 5 6 7 8 9 10 11 12 13 14 15 16 17 18 19 20 21 22 23 24 25 26 27 28 29 30 31 32 33 34 35 36 37 38 39 40 41 42 43 44 45 46 47 48 49 50
000
ASUS43 KBIS 272210
RWRBIS

NWR BROADCAST TEXT
NATIONAL WEATHER SERVICE BISMARCK ND
500 PM CDT WED AUG 27 2014

NOTE: "FAIR" INDICATES FEW OR NO CLOUDS BELOW 12,000 FEET WITH NO
SIGNIFICANT WEATHER AND/OR OBSTRUCTIONS TO VISIBILITY.


CITY           SKY/WX    TMP DP  RH WIND       PRES   REMARKS
WILLISTON      SUNNY     83  53  35 SE8       29.98F
MINOT          SUNNY     77  53  43 S10       30.02F
MINOT AFB      SUNNY     77  56  48 S9        30.02F
BISMARCK       SUNNY     78  59  51 S10       30.06F
DICKINSON      MOSUNNY   77  54  44 S8        30.03F
GARRISON         N/A     77  59  53 S12       30.04F
HETTINGER ARPT MOSUNNY   75  55  49 SE9       30.07F
JAMESTOWN      MOSUNNY   73  59  61 S9        30.09F
BEACH            N/A     77  52  41 S14       30.04F
CARRINGTON     FAIR      73  61  64 SE12      30.10F
CROSBY         FAIR      81  52  36 S12       29.98F
HARVEY         FAIR      75  55  50 S12       30.07F
HAZEN          FAIR      77  55  47 S13G18    30.05F
LINTON         CLOUDY    72  63  73 SE8       30.08F
MANDAN         FAIR      75  59  57 SE10      30.07F
OAKES            N/A     75  61  60 SE7       30.09F
RUGBY          FAIR      73  57  56 S10       30.05F
STANLEY        FAIR      75  57  53 S16       30.02F
TIOGA          FAIR      79  55  44 S15G21    30.04F
WATFORD CITY   FAIR      81  52  36 SE10G22   29.99F
$$

CITY           SKY/WX    TMP DP  RH WIND       PRES   REMARKS
GRAND FORKS    MOSUNNY   74  55  51 SW6       30.10F
GRAND FORKS AF SUNNY     74  58  58 SW8       30.11F
DEVILS LAKE    SUNNY     73  55  53 S9        30.07F
FARGO          PTSUNNY   74  58  57 SE8       30.11F
CANDO          FAIR      73  57  56 S12       30.07F
CAVALIER       FAIR      73  54  49 S15       30.08F
GRAFTON        FAIR      73  50  43 SW12      30.09F
GWINNER        PTCLDY    75  61  60 SE9       30.11F
LANGDON        FAIR      73  54  49 S12G20    30.09F
ROLLA          FAIR      72  54  53 S9G16     30.08F
WALHALLA         N/A     73  52  46 S10       30.08F
$$

CITY           SKY/WX    TMP DP  RH WIND       PRES   REMARKS
ABERDEEN       CLOUDY    69  60  73 SE6       30.08F
MOBRIDGE       CLOUDY    70  62  76 E6        30.05F
BUFFALO          N/A     77  57  50 SE12      30.01S
RAPID CITY     CLOUDY    73  61  65 S3        30.07F
GLASGOW        SUNNY     85  47  26 SW10      29.92F
SIDNEY         SUNNY     82  55  39 S7        29.99F
WOLF POINT     MOSUNNY   88  51  28 SW7       29.93F
GLENDIVE       SUNNY     82  52  34 SE10      30.00F
MILES CITY     MOSUNNY   85  46  25 S9        29.98F
BAKER          MOSUNNY   81  50  33 SE6       30.04F
$$

CITY           SKY/WX    TMP DP  RH WIND       PRES   REMARKS
BILLINGS       MOSUNNY   85  44  23 S12       30.02F
GREAT FALLS    SUNNY     84  42  22 VRB3      30.02S
REGINA         MOSUNNY   82  57  42 SW9       29.90F
ESTEVAN        MOSUNNY   79  54  41 S12       29.98F
$$



USA.gov is the U.S. government's official web portal to all federal, state and local government web resources and services.